GFSFLT1_con_mlcape_057.txt.gz
CAPE
398 504 399 348 339 251 138 128 134 67 42 60 46 80 166 170 164 162 142 213 170 184 131 303 799 913 1185 1318 1625 1600 1571 1519 1495
310 497 490 414 412 309 206 145 204 132 130 89 72 58 150 230 227 218 197 201 222 188 174 105 400 478 725 1039 1324 1569 1674 1611 1554
117 338 533 532 455 420 244 166 176 168 150 111 135 83 123 210 235 289 269 299 155 191 219 124 58 267 706 947 1141 1407 1611 1554 1775
21 113 261 483 589 517 393 220 243 226 143 183 177 136 138 183 266 326 339 293 307 279 243 271 240 225 460 827 1061 1252 1424 1405 1668
2 46 177 382 533 551 490 423 332 269 228 233 205 202 159 142 266 326 344 315 360 394 301 315 340 378 454 724 883 1055 1194 1069 1228
0 51 229 384 442 497 535 596 507 449 327 264 291 261 206 200 248 327 361 422 444 463 408 370 374 402 368 376 698 954 1130 1059 1260
0 0 58 229 314 357 460 567 640 610 468 352 315 298 311 345 358 357 451 527 541 565 524 430 467 486 499 489 621 860 1150 1254 1246
0 0 0 31 139 195 289 421 595 698 593 434 393 425 464 493 511 539 600 703 694 697 672 577 622 614 603 667 736 624 789 1024 1283
0 0 0 0 151 213 265 443 382 563 598 493 497 546 613 662 687 698 737 777 821 820 691 633 755 755 759 797 826 452 359 705 1121
0 0 0 7 4 169 261 393 448 417 529 577 532 572 639 778 841 815 826 875 953 1015 932 956 834 826 839 888 1003 585 269 184 662
0 0 0 2 52 25 438 368 508 478 605 655 594 567 586 787 900 894 931 949 947 946 1086 1172 1253 1227 1250 1146 1141 796 424 248 470
0 0 0 5 96 125 0 481 558 647 780 842 765 644 686 773 925 1001 1107 1093 1091 1075 1037 1018 1064 1309 1458 1331 1301 902 559 450 850
0 0 1 290 778 294 4 551 701 773 898 980 876 875 898 984 976 1002 1121 1234 1299 1396 1403 1357 1394 1317 1439 1468 1424 1274 638 470 1017
0 1 5 996 488 542 631 738 794 865 993 960 1099 1258 1256 1269 1271 1295 1327 1414 1587 1754 1799 1857 1986 1936 1957 1867 1715 1740 1126 694 1199
0 0 0 288 993 645 829 706 761 856 983 1235 1376 1464 1429 1480 1458 1438 1655 1701 1825 1897 2033 2096 2188 2286 2430 2486 2491 1989 1668 1109 1019
0 0 0 0 259 599 1211 1106 1031 1058 1213 1311 1260 1372 1461 1576 1770 1842 1974 2106 2179 2226 2340 2327 2491 2591 2621 2722 2847 2979 2205 1653 1294
0 0 0 0 0 0 209 868 1127 1474 1559 1264 1226 1336 1566 1819 1987 2119 2294 2429 2459 2500 2608 2632 2692 2872 2933 2980 3065 3136 3223 2616 1864
0 0 0 0 0 0 0 5 245 729 1087 2167 1886 1597 1565 1666 1851 1999 2392 2435 2463 2604 2741 2765 2954 2960 3105 3173 3222 3257 3192 3230 3110
0 0 0 0 0 0 0 0 0 1 169 905 1247 1721 2076 1963 2586 1997 2146 2246 1342 490 751 893 1363 1906 2490 3185 2841 2808 2584 2466 2489
0 0 0 0 0 0 0 0 0 0 0 32 509 669 453 381 901 2212 2439 1880 1975 1869 711 356 638 927 1262 1580 2371 2253 2237 2256 2088

GFSFLT1_con_mlcape_060.txt.gz
CAPE
660 716 640 574 329 176 131 273 290 342 460 875 894 801 942 618 704 439 608 752 495 483 287 297 547 1629 1670 1881 1915 2037 1978 1523 1491
208 398 581 646 723 673 426 232 358 440 615 757 781 658 1094 1081 906 674 385 621 714 550 634 347 472 779 1492 1402 1550 1861 1827 1639 1943
61 192 521 647 755 812 750 476 379 429 516 735 681 595 894 899 807 940 771 750 861 840 582 761 433 679 885 891 1068 1630 1972 1677 1980
1 187 561 668 747 777 842 692 430 505 539 626 704 658 770 726 716 772 993 853 1016 1165 1025 866 1125 734 653 653 1240 1587 1894 1793 1526
0 17 187 565 644 720 803 824 602 470 553 609 663 730 978 846 894 844 740 984 1021 1192 1279 1164 1254 1136 967 615 820 1320 1826 1782 1272
0 13 48 245 458 677 822 873 780 569 559 576 564 696 706 714 805 820 819 986 1115 1254 1355 1423 1266 1244 1241 1048 828 1234 1624 1755 1637
0 13 77 170 389 511 871 941 1053 929 668 554 543 595 636 767 850 833 845 1106 1294 1282 1464 1561 1487 1302 1329 1293 1017 753 1119 1375 1621
0 0 0 57 312 566 934 1098 1259 1196 898 811 699 937 736 903 1145 1078 1071 1244 1412 1441 1524 1586 1650 1518 1384 1426 1230 681 779 1001 1121
0 3 18 0 154 399 765 1034 1337 1485 1362 1145 1012 1213 1124 1159 1416 1356 1367 1444 1580 1675 1636 1633 1703 1594 1492 1454 1295 689 362 644 737
0 0 15 81 135 130 341 757 1049 1371 1561 1386 1288 1417 1397 1423 1626 1723 1671 1632 1709 1719 1671 1757 1818 1743 1617 1670 1725 1060 536 336 503
0 0 0 26 71 148 191 384 538 1098 1274 1557 1549 1634 1625 1661 1780 1812 1942 1983 1965 1946 1884 1902 1880 1805 1840 1875 1898 1465 985 512 780
0 1 52 128 195 258 350 375 478 816 1083 1427 1488 1678 1739 1800 1931 1883 1910 2003 2060 2054 2033 2060 2028 1943 1989 1989 2015 1432 1063 830 1048
0 30 122 265 505 872 944 884 424 695 1087 1216 1588 1646 1752 1916 2021 2045 2011 2085 2116 2153 2068 2091 2051 2076 2216 2273 2419 2156 1272 1004 1337
0 0 8 340 1220 1504 1314 1219 450 913 1176 1233 1579 1483 1462 1756 1936 2114 2120 2242 2257 2254 2123 1999 2122 2061 2165 2263 2290 2403 1720 1136 1566
0 0 0 182 1518 1467 1100 633 410 1384 1508 1525 1581 1583 1566 1911 1958 1849 1957 2406 2458 2414 2440 2471 2593 2518 2478 2273 2478 2122 1877 1357 1275
0 0 0 0 261 1529 1658 1212 1065 1490 1747 1705 1844 1855 2014 2087 2147 2121 2098 2349 2580 2544 2659 2495 2576 2622 2661 2590 2657 3002 2344 1615 1321
0 0 0 0 0 0 733 1565 1798 1655 1768 1863 1990 2169 2274 2327 2439 2429 2245 2522 2654 2574 2558 2592 2569 2731 2799 2855 2961 3142 3436 2866 1796
0 0 0 0 0 0 0 42 375 1422 2104 1991 2139 2293 2430 2564 2634 2498 2720 2688 2579 2777 2748 2607 2849 2833 3011 3098 3224 3350 3528 3691 3813
0 0 0 0 0 0 0 0 0 3 591 2277 2090 2142 2166 2266 2388 2755 2760 2834 2593 1081 1158 1235 1656 2132 2445 3417 3100 3123 3154 3220 3220
0 0 0 0 0 0 0 0 0 0 0 781 1732 1993 2365 2601 2867 2503 2731 2870 2982 2564 1462 1288 1110 1269 1895 2328 2150 2547 2549 2351 1947

GFSFLT1_con_mlcape_063.txt.gz
CAPE
483 522 514 555 484 369 466 499 491 513 960 1530 1524 1211 968 514 779 210 224 615 409 281 112 151 1640 1879 1486 1730 1986 1557 1711 1578 1532
302 498 541 508 575 501 501 574 681 628 840 1510 1662 1126 1493 1523 848 249 43 531 909 990 555 316 264 878 1564 1409 1292 1691 1676 1437 1932
84 329 590 681 693 561 500 576 609 728 898 1550 1552 1335 1557 1509 1283 1041 691 1123 1569 943 929 829 667 683 786 1351 1354 1362 1925 1517 1681
103 544 512 632 733 864 629 516 581 676 850 1132 1295 1449 1490 1223 1303 931 953 1475 1510 1411 1296 1446 1234 1194 1079 1062 1223 1284 1979 1798 1731
0 35 324 491 631 863 974 964 708 625 659 763 1121 1267 1461 1339 1505 1041 1015 1210 1358 1719 1814 1754 1723 1708 1489 1301 916 1305 2055 1820 1398
0 16 174 439 556 728 900 1110 1133 811 649 638 762 1232 1200 1357 1402 1459 1051 1513 1454 1653 1940 2082 1684 1802 2018 1680 1139 1275 1973 2235 2001
0 4 87 172 374 542 817 1059 1425 1292 856 679 671 815 898 1103 1409 1424 1237 1392 1674 1725 2003 2181 2122 2164 2147 1985 1651 1261 1271 1756 2113
15 20 37 70 103 377 1153 1307 1652 1528 1082 968 784 926 853 1104 1516 1493 1475 1298 1709 1833 2103 2239 2393 2425 2322 2244 1799 1393 1278 1480 1796
99 54 3 0 138 443 735 1114 1877 1786 1516 1282 1023 1168 956 1007 1504 1648 1606 1523 1715 2006 2147 2310 2502 2449 2520 2330 1657 1116 843 1048 1184
18 2 9 34 79 241 547 998 1440 1665 1827 1524 1361 1496 1321 1257 1526 1699 1740 1729 1852 2059 2272 2497 2650 2614 2639 2628 2410 1240 829 517 778
34 65 72 82 115 129 272 565 968 1422 1728 1848 1810 1578 2096 1615 1860 2048 2093 2097 2104 2281 2467 2455 2601 2692 2732 2804 2710 1994 1088 698 842
37 165 289 315 299 269 232 264 431 919 1442 2162 1982 2308 1892 2247 2122 2264 2441 2397 2468 2582 2683 2710 2639 2877 2902 2916 2774 1931 1397 1049 1198
0 0 104 274 525 693 740 725 615 517 1095 1578 2226 2420 2348 2373 2377 2613 2749 2766 2736 2830 2958 2885 2474 2639 2990 3039 3081 2668 1619 1271 1629
0 0 0 0 273 1557 1690 1504 1056 810 834 1466 2067 2315 2446 2717 2655 2766 2969 3051 3123 3151 3093 2489 2920 2817 2895 2940 2777 3102 2112 1353 1913
0 0 0 0 7 846 2687 1931 1660 1743 1128 1775 1946 2175 2345 2643 2878 2676 2768 3092 3242 3279 3235 3044 3231 2993 3160 2750 3255 2798 2303 1828 1744
0 0 0 0 0 2 227 1604 1679 1936 1672 2277 2105 2274 2407 2579 2816 2970 2748 3088 3284 3102 3119 2657 2664 2762 2475 2284 2175 2660 2176 1613 1655
0 0 0 0 1 2 0 0 264 1210 2441 2287 2486 2468 2693 2688 2784 2895 2834 2863 3021 2810 2610 2740 2540 2550 2528 2196 1829 1549 2255 2154 1405
1 7 2 0 3 4 3 0 1 0 527 1907 2244 2592 2608 2721 2621 2619 2784 2745 2713 2613 2478 2283 2262 1762 1659 1597 2018 2268 2662 3005 3199
7 10 6 0 0 0 0 0 1 0 1 475 2179 2419 2580 2561 2565 2704 2618 2691 2325 1186 1676 1342 1396 1346 1841 2539 1875 2141 2088 2698 3040
10 0 0 1 1 0 0 0 0 0 0 8 1057 2493 2678 2732 2559 2737 2884 2790 2885 2748 1362 965 1371 1484 1584 1894 1719 1977 2079 1735 2066

GFSFLT1_con_mlcape_069.txt.gz
CAPE
9 240 189 169 238 147 94 93 165 122 101 209 259 29 9 179 217 4 199 802 1004 975 946 983 960 1589 1166 1033 1037 1211 1236 1068 945
224 337 239 69 187 262 158 154 126 279 219 161 354 146 0 50 345 2 62 282 886 911 732 1048 726 1435 1273 1002 1295 1070 1342 1078 871
191 254 114 209 235 240 217 169 205 215 445 267 408 393 93 0 178 260 25 104 332 981 366 760 1082 1452 1254 1383 1230 1205 1410 1034 1105
90 41 27 202 196 159 148 134 194 216 562 487 488 380 510 37 0 431 274 185 116 598 597 776 1024 1398 1464 1910 1885 1390 1390 1206 1226
251 234 301 5 13 4 88 189 310 215 356 657 631 573 622 643 28 78 310 252 21 195 492 622 1616 1455 1465 1404 1247 1542 1870 1495 1199
262 238 318 169 67 0 0 28 52 400 374 773 815 946 603 889 767 30 141 66 120 5 338 432 623 1438 1461 1499 1463 1267 1250 1571 1437
249 317 263 205 45 7 2 54 157 603 469 728 1077 1111 1160 861 911 873 141 66 1 390 229 1059 772 946 1567 1268 1214 1177 1276 1433 1482
245 345 217 215 35 46 112 110 422 414 731 666 1149 1465 1424 1305 1108 1058 1139 555 320 3 853 524 1272 1340 1310 1744 1482 1425 1259 1202 1386
24 71 174 242 118 66 371 234 126 210 519 866 815 1445 1681 1575 1397 1270 1206 1214 976 401 129 1484 892 858 1310 1436 1787 1730 1493 1253 1185
31 0 2 1 5 143 74 9 14 0 88 827 980 1014 1548 1615 1582 1496 1349 1327 1131 1072 579 448 1525 1626 1441 1336 1557 1716 1697 1574 1281
3 0 0 21 0 0 84 16 0 153 423 603 776 982 1193 1492 1559 1522 1489 1429 1375 1194 1206 902 732 972 1507 1745 1744 1784 1712 1596 1384
0 0 0 0 11 0 2 119 155 16 24 377 360 873 1135 1290 1466 1501 1533 1382 1436 1419 1398 1505 1250 1482 1708 1825 1948 1851 1754 1480 1035
0 0 0 0 0 0 0 0 0 452 0 0 137 719 1444 1276 1293 1467 1364 1496 1415 1587 1399 1313 1664 1511 1715 1939 1955 1979 1809 1622 1574
0 0 0 0 0 0 0 0 0 3 108 179 685 972 1610 1480 1367 1381 1416 1433 1542 1476 1585 1458 1351 1690 1713 1945 2124 2202 1833 1630 2052
0 0 0 0 0 0 0 0 2 1 0 0 25 624 1779 1936 1777 1482 1650 1527 1665 1679 1644 1658 1625 1594 1854 1934 2122 2132 2110 1763 1507
0 0 0 0 0 0 0 0 0 0 4 4 0 291 1267 1969 2224 1878 1752 1840 1772 1859 1880 1849 1818 1911 1924 2049 2240 2461 2250 1968 1715
0 0 0 0 0 0 0 0 0 0 1 4 4 252 1182 2128 2218 2531 2063 2298 2112 2143 2136 2177 2118 2149 2228 2329 2361 2527 2719 2184 1752
0 0 8 0 1 0 0 0 0 0 0 3 2 14 911 2373 2359 2609 2651 2619 2644 2452 2545 2508 2467 2435 2434 2348 2573 2556 2637 2748 2326
3 1 7 3 0 0 0 0 0 0 0 1 6 3 774 2192 2665 2928 2919 2693 2117 1229 1970 2581 2554 2526 2599 2350 2055 2602 2528 2308 2484
3 14 1 0 1 1 0 0 0 0 0 0 0 4 4 640 2392 2941 2967 2949 2762 2259 1059 770 1343 1978 2514 2290 2200 1355 1446 1839 1516

GFSFLT1_con_mlcape_072.txt.gz
CAPE
233 86 124 161 155 7 2 0 16 24 62 48 102 202 185 103 30 40 110 544 693 840 883 1004 1259 1442 1258 884 485 711 816 898 862
212 121 214 249 209 65 47 8 19 53 85 63 51 66 83 124 135 63 54 504 820 758 699 763 1041 1458 1328 1139 854 840 974 842 791
152 268 252 271 330 216 108 53 8 0 92 101 100 57 32 13 58 176 64 77 396 1035 792 737 828 1132 1260 1041 882 700 823 752 718
58 196 334 366 343 255 209 143 87 63 9 57 170 177 87 0 3 74 284 75 81 435 938 842 1027 1120 954 1144 947 859 905 881 834
25 170 275 281 362 396 322 197 109 141 219 110 91 231 244 84 0 0 184 245 60 78 388 728 1032 935 1138 1207 1072 947 930 788 910
130 67 85 169 176 208 271 286 185 144 215 359 235 268 266 290 66 0 11 206 231 66 147 562 1240 1001 1087 1328 1121 1362 1263 1087 1023
100 102 174 108 70 36 0 0 51 98 243 425 463 427 370 391 440 131 0 30 162 185 92 178 517 1334 1257 1173 1199 1404 1510 1469 1353
130 123 139 99 56 22 2 2 0 51 249 331 641 603 613 392 599 630 235 0 22 18 138 135 278 538 1185 1448 1407 1275 1087 1017 936
37 0 0 0 86 256 302 108 8 60 233 313 701 748 773 748 511 747 731 410 44 18 0 72 234 257 594 830 1301 1263 1092 1083 1056
11 2 0 0 0 20 169 188 33 13 31 63 264 853 1035 1055 1005 786 807 915 593 307 123 0 169 382 617 1121 1236 1273 1201 1127 1063
0 0 0 0 0 0 1 27 3 71 30 119 159 221 816 1483 1411 1289 1086 986 1086 889 661 287 104 543 554 613 1120 1307 1289 1251 1237
0 0 0 0 0 0 0 0 0 33 187 286 295 343 341 564 1661 1598 1422 1290 1195 1167 1051 818 465 353 920 1106 1062 889 835 875 1141
0 0 0 0 0 0 0 0 0 0 52 123 23 117 282 262 362 1439 1599 1529 1409 1332 1183 1135 993 762 537 653 1104 1370 1181 972 1192
0 0 1 0 0 0 0 0 0 0 0 10 9 8 28 141 360 1251 1492 1581 1495 1441 1410 1251 1261 1203 1042 1091 1160 1210 1049 1009 1426
0 0 0 0 0 0 0 0 0 0 0 1 1 1 5 51 239 1250 1340 1525 1521 1355 1364 1440 1274 1307 1413 1291 1335 1407 1311 1141 1114
0 0 0 0 0 0 0 0 0 0 0 0 0 0 0 25 269 964 1391 1501 1463 1475 1377 1420 1430 1277 1203 1385 1477 1551 1427 1257 1118
0 0 0 0 0 0 0 0 0 0 0 0 2 2 1 56 333 1020 1650 1412 1423 1416 1440 1383 1374 1467 1388 1319 1420 1668 1755 1374 1105
0 0 0 1 0 0 0 0 0 0 0 0 2 0 0 44 226 856 1964 1543 1583 1547 1520 1506 1472 1516 1515 1582 1612 1650 1847 1951 1647
0 0 2 10 1 0 0 0 0 0 0 0 2 0 0 3 69 536 2000 2186 1480 769 1082 1423 1472 1539 1621 1733 1734 1818 1852 1788 1870
0 2 2 0 0 0 0 0 0 0 0 1 0 2 0 3 5 330 1762 2521 2109 2066 1104 875 1359 1511 1769 1900 2008 1766 1661 1838 1782

GFSFLT1_con_mlcape_075.txt.gz
CAPE
203 284 180 160 146 1 0 0 0 0 0 0 0 21 16 0 0 30 103 141 364 494 707 790 897 1073 1076 1030 572 817 506 795 915
201 218 193 188 191 45 0 0 0 17 17 0 0 1 48 45 0 0 8 86 246 600 578 858 916 1110 1208 1232 977 534 837 819 821
36 247 134 94 190 91 46 0 23 0 49 33 0 0 29 48 46 20 0 0 95 517 683 720 855 1094 1140 1131 1220 996 767 970 904
0 77 128 120 172 111 32 17 0 7 13 61 49 26 15 31 32 64 16 0 30 53 561 808 762 860 1052 937 1225 1241 930 779 876
0 12 132 138 150 153 6 23 13 40 39 50 61 56 28 10 0 0 1 0 0 7 42 267 925 874 922 1056 1101 1188 1021 753 921
28 38 150 204 220 191 80 16 7 30 5 50 112 126 87 21 0 0 0 0 0 0 22 0 232 808 1073 1102 1075 1046 1089 940 794
77 119 108 55 17 0 7 0 0 30 43 29 63 148 205 114 38 0 0 0 0 0 0 7 50 388 928 1022 932 1149 1168 1033 1012
62 4 17 44 46 57 46 9 0 0 33 72 158 89 184 198 180 66 0 0 0 0 0 0 0 111 699 1140 1180 1139 1167 1131 1261
0 0 0 0 0 31 223 210 124 21 0 70 233 270 214 230 252 247 75 0 0 0 0 0 0 0 85 410 1182 1274 1109 1084 1245
0 0 0 0 0 0 6 4 15 51 42 77 241 451 379 353 298 362 401 225 0 0 0 0 0 0 0 34 261 738 1086 1114 1224
0 0 0 0 0 0 0 0 0 1 88 22 136 290 503 655 642 452 467 565 410 147 4 0 0 0 0 0 25 75 99 555 1016
0 0 0 0 0 0 0 0 0 1 35 174 124 134 191 383 932 936 733 699 714 653 343 154 70 27 0 29 60 113 123 285 879
0 0 0 0 0 0 0 0 0 0 2 2 0 6 75 164 525 1275 1307 1086 948 887 845 694 526 350 98 172 337 178 158 254 569
0 0 0 0 0 0 0 0 0 0 0 0 3 3 0 0 5 90 415 916 1259 1241 1067 1044 945 805 583 292 406 717 479 306 505
0 0 0 0 0 0 0 0 0 0 0 0 1 1 3 1 0 5 126 716 1175 1384 1309 1200 1159 1049 969 792 558 331 386 476 602
0 0 0 0 0 0 0 0 0 0 0 0 0 1 1 0 0 1 105 511 1136 1383 1401 1441 1311 1196 1134 1109 1023 892 636 438 372
0 0 0 0 0 0 0 0 0 0 0 0 0 0 0 0 0 1 91 428 1249 1351 1392 1462 1415 1363 1259 1107 1162 1219 1183 760 504
0 0 0 0 0 0 0 0 0 0 0 0 0 0 0 0 0 1 6 117 1086 1382 1383 1440 1451 1378 1332 1229 1119 1069 1200 1237 1047
0 0 0 0 0 2 0 0 0 0 0 0 0 0 0 0 0 0 2 65 1082 921 981 1232 1223 1205 1254 1296 1157 977 868 1034 1125
2 0 0 0 2 0 0 0 0 0 0 0 0 0 0 2 0 2 1 3 388 1824 1213 568 752 828 1032 1047 1277 1022 1021 914 947

GFSFLT1_con_mlcape_078.txt.gz
CAPE
121 481 345 222 26 0 0 0 0 0 0 0 2 5 0 0 0 0 29 98 198 282 292 473 616 845 1007 840 755 659 460 455 445
43 265 385 216 181 0 3 1 13 0 0 0 0 0 0 0 0 0 0 70 167 240 360 456 626 746 858 890 742 612 573 490 501
0 8 313 308 171 54 0 0 14 18 0 0 0 0 0 0 0 0 0 12 93 145 263 508 624 785 928 863 808 739 642 522 730
8 17 110 343 260 95 0 16 0 0 18 0 0 17 34 14 0 0 0 0 9 67 151 354 609 746 916 919 684 600 763 807 689
24 56 112 253 205 136 47 12 13 0 0 23 0 16 15 34 0 0 0 0 0 0 21 126 378 708 850 886 820 848 933 868 959
1 76 177 195 227 187 88 17 0 0 0 0 24 18 0 0 0 0 12 0 0 0 0 0 41 230 748 912 869 899 1013 1037 1043
3 3 2 85 143 100 60 7 11 1 0 0 0 1 24 0 0 0 0 9 0 0 0 0 0 52 200 538 852 980 972 893 994
0 1 0 0 4 97 104 117 41 2 33 22 11 18 32 0 0 0 0 0 0 0 0 0 0 0 55 204 456 834 917 830 936
0 1 0 0 0 0 2 2 1 0 14 34 60 35 51 110 52 1 0 0 0 0 0 0 0 0 0 21 272 452 705 957 997
0 0 0 0 0 0 0 0 0 1 0 49 57 143 126 114 167 167 124 6 0 0 0 0 0 0 0 0 6 114 205 513 1034
0 0 0 0 0 0 0 0 0 0 2 100 102 131 299 216 213 241 250 209 57 0 0 0 0 0 0 0 0 0 2 54 457
0 0 0 0 0 0 0 0 0 0 2 0 3 21 126 330 442 357 307 345 384 233 46 0 26 10 0 30 44 0 0 0 30
0 0 0 0 0 0 0 0 0 0 0 0 0 0 1 2 64 301 582 513 475 466 424 271 91 46 29 0 140 39 1 0 14
0 0 0 0 0 0 0 0 0 0 0 0 0 0 0 2 0 7 72 492 828 604 642 615 548 423 312 164 110 173 17 20 176
0 0 0 0 0 0 0 0 0 0 0 0 0 0 0 0 0 0 0 27 150 534 1003 964 950 894 799 594 433 262 205 72 68
0 0 0 0 0 0 0 0 0 0 0 0 0 0 0 0 0 0 0 0 26 158 598 1141 1072 1023 1049 1031 839 630 273 228 142
0 0 0 0 0 0 0 0 0 0 0 0 0 0 0 0 0 0 0 4 2 30 594 1206 1167 1236 1203 1140 1070 1029 879 339 82
0 0 0 0 0 0 0 0 0 0 0 0 0 0 0 0 0 0 0 0 0 15 151 1056 1340 1393 1357 1246 1157 1205 1139 994 700
1 0 0 0 0 0 0 0 0 0 0 0 2 0 0 0 0 0 0 0 0 0 4 182 664 945 1232 1306 1134 988 826 841 775
3 4 3 0 0 0 0 0 0 0 0 0 0 2 1 0 0 0 0 1 2 1 32 93 247 691 702 800 1183 779 780 661 543

GFSFLT1_con_mlcape_084.txt.gz
CAPE
199 259 672 660 520 600 464 383 342 472 499 880 1055 963 973 1158 1358 1130 1019 770 352 794 884 1074 1163 1931 1564 1420 1466 1592 1584 1083 959
393 312 334 739 657 642 540 488 545 584 717 971 1066 1014 1042 1210 1361 1281 703 475 867 798 708 954 1487 1746 1086 1266 1498 1672 1832 1172 1584
289 567 374 695 955 954 623 595 598 714 821 965 1117 992 961 1064 1226 1325 1201 960 857 822 521 1037 1117 1826 1863 1332 1647 1663 1893 1397 1665
77 244 533 808 1089 1012 862 730 719 649 775 914 1149 1049 851 894 966 1056 1194 1013 925 841 890 1070 1411 1770 1769 1424 1670 1894 1958 1491 1475
4 17 133 151 262 703 926 733 743 699 663 695 879 1038 1060 1013 1042 1042 908 993 790 771 950 936 1431 1608 1660 1587 1463 1817 2038 1609 1018
0 1 1 1 35 61 107 230 571 736 737 697 683 763 786 903 983 1050 982 734 914 801 889 972 1008 1354 1697 1557 1245 1587 2144 1919 1780
0 0 0 0 0 1 0 2 38 121 500 607 643 739 769 701 659 710 745 700 685 869 966 955 749 963 1231 1548 1550 1199 1606 1847 2094
4 1 0 0 0 0 0 0 2 5 9 193 574 584 729 816 904 827 712 740 575 665 912 1035 1028 801 792 1025 1241 1440 1397 1497 2026
1 2 3 2 0 0 0 0 0 0 5 5 22 528 789 740 880 909 1025 1071 981 795 830 1068 1135 1103 866 620 333 411 793 1399 1809
0 0 0 0 1 0 0 0 0 0 0 0 4 15 586 717 842 843 961 1017 1109 1143 992 829 1116 1149 1071 1017 861 144 87 494 875
0 0 0 0 0 0 0 0 0 0 0 0 0 0 1 2 110 625 956 985 1065 1045 1083 1050 1046 1086 1176 1138 1169 745 275 26 542
0 0 0 0 0 0 0 0 0 0 0 0 0 0 0 0 3 4 126 879 1112 1206 1078 1115 1075 1062 1132 1253 1248 874 496 230 413
0 0 0 0 0 0 0 0 0 0 0 0 0 0 0 0 0 4 3 67 623 917 1220 1107 1108 1036 1129 1160 1241 1192 689 247 514
0 0 0 0 0 0 0 0 0 0 0 0 0 0 0 0 0 0 2 1 4 469 953 1160 1194 1401 1300 1262 1249 1222 729 375 573
0 0 0 0 0 0 0 0 0 0 0 0 0 0 0 0 0 0 0 2 4 3 148 587 803 973 1237 1694 1532 1171 889 406 218
0 0 0 0 0 0 0 0 0 0 0 0 0 0 0 0 0 0 0 0 2 4 7 85 406 235 489 1302 1574 1515 1264 796 299
0 0 0 0 0 0 0 0 0 0 0 0 0 0 0 0 0 0 0 0 0 0 3 7 86 295 303 503 1042 1438 1678 1496 678
0 0 0 2 6 9 9 8 3 0 0 0 0 0 0 0 0 0 0 0 0 0 0 0 3 40 91 251 511 895 556 692 1323
0 0 2 5 8 5 9 7 9 11 7 3 1 5 0 0 0 0 0 0 0 0 0 0 0 0 0 0 1 0 0 10 46
0 4 6 6 10 12 6 10 4 9 27 12 7 5 12 0 0 0 0 0 0 0 0 0 0 0 0 0 0 0 0 0 0

GFSFLT1_con_mlcape_087.txt.gz
CAPE
300 316 778 456 546 426 531 310 135 275 572 1001 1367 1228 1318 1605 1631 1212 737 967 912 412 964 894 2354 2052 1692 1594 1558 1504 1696 1538 1047
927 350 797 731 859 399 394 407 248 270 577 1013 1458 1480 1427 1538 1731 1596 750 826 945 792 850 880 1277 1290 1482 1501 1542 1567 1540 1538 1403
622 782 532 914 674 339 161 303 355 332 605 998 1515 1621 1544 1502 1574 1763 1449 941 863 759 956 796 675 1427 1563 1612 1492 1524 1576 1635 1616
106 393 647 926 523 213 213 757 577 566 723 947 1380 1603 1507 1414 1418 1580 1735 1438 1227 1035 984 1140 1223 1838 1763 2004 1820 1840 1789 1863 1877
19 62 56 3 25 70 146 616 413 152 766 922 1134 1428 1569 1426 1307 1378 1400 1602 1454 1343 1278 1047 1135 1402 1692 1506 1775 1984 1929 1712 965
0 0 9 0 0 0 0 10 164 93 284 388 901 1146 1360 1505 1480 1419 1315 1322 1524 1401 1288 1286 981 1170 1702 1580 1575 1698 1909 2069 1820
0 0 0 0 0 0 0 1 3 6 14 145 465 691 975 1245 1390 1504 1476 1571 1489 1335 1416 1415 1387 1157 1468 1792 1750 1458 1589 1871 1988
2 0 0 0 0 0 0 0 0 2 3 4 35 617 950 798 1333 1308 1305 1377 1464 1326 1374 1470 1521 1522 1258 1419 1291 1323 1624 1587 1720
0 2 1 1 0 0 0 0 0 0 0 0 4 4 76 471 839 919 1273 1555 1403 1440 1148 1299 1766 1665 1560 1340 894 376 501 1513 1626
4 2 1 0 0 0 0 0 0 0 0 0 0 0 0 2 46 215 460 959 1270 1611 1724 1515 1584 1796 1728 1753 1704 892 68 273 922
0 0 0 0 0 0 0 0 0 0 0 0 0 0 0 0 1 4 10 265 1064 1270 1329 1508 1703 1572 1846 1964 1976 1423 810 92 411
0 0 0 0 0 0 0 0 0 0 0 0 0 0 0 0 0 0 2 4 14 544 1099 1298 1363 1494 1694 1852 1980 1571 1080 678 628
0 0 0 0 0 0 0 0 0 0 0 0 0 0 0 0 0 0 0 0 0 2 192 1014 1364 1396 1555 1656 1709 1811 1382 861 1054
0 0 0 0 0 0 0 0 0 0 0 0 0 0 0 0 0 0 0 0 0 0 2 50 668 1310 1512 1488 1532 1630 1240 969 1339
0 0 0 0 0 0 0 0 0 0 0 0 0 0 0 0 0 0 0 0 0 0 0 0 113 593 864 1188 1557 1200 1372 885 767
0 0 0 0 0 0 0 0 0 0 0 0 0 0 0 0 0 0 0 0 0 0 0 5 32 168 490 896 918 1094 1081 665 646
0 0 0 0 0 0 0 0 0 2 0 0 0 0 0 0 0 0 0 0 0 0 0 0 0 1 28 1 28 807 1021 925 161
0 0 0 0 0 0 0 0 1 4 5 6 2 0 0 0 0 0 0 0 0 0 0 0 0 0 0 0 0 0 0 0 0
1 1 1 1 1 1 2 0 3 7 3 6 20 12 0 0 0 0 0 0 0 0 0 0 0 0 0 0 0 0 0 0 0
0 1 0 1 3 4 5 3 4 4 3 3 5 11 18 9 0 0 0 0 0 0 0 0 0 0 0 0 0 0 0 0 0

GFSFLT1_con_mlcape_093.txt.gz
CAPE
93 236 125 165 186 117 82 33 119 185 209 422 422 719 313 377 461 601 397 476 126 580 635 851 1022 1143 1357 1188 1338 1362 1387 1136 1144
53 90 209 244 180 161 138 45 89 147 290 320 328 1191 622 670 765 335 720 729 866 624 858 1282 1349 1194 1215 1449 1174 1103 1422 1243 1479
133 206 24 142 282 296 127 140 135 505 565 698 408 526 1085 1069 809 431 687 1070 1286 860 649 672 983 851 1334 1442 1492 1131 1235 1055 1167
68 82 137 262 163 79 82 141 82 126 102 276 467 926 1058 1248 1076 1207 893 875 1091 1294 631 561 188 380 729 772 1187 1414 1245 1169 1094
1 2 10 59 24 0 16 0 13 156 46 87 249 336 731 1381 1591 1460 1081 1058 1575 1110 837 782 651 90 0 342 796 1362 1421 1197 987
0 1 1 2 1 0 0 0 41 41 0 26 74 92 282 971 1723 1816 1319 1396 1523 1660 1441 949 806 789 651 856 1030 1553 1386 1167 975
0 0 0 0 0 0 0 0 1 1 0 4 24 46 102 214 341 820 1488 1929 1829 1811 1778 1666 1445 1329 1280 1542 1568 1394 1564 1499 1132
0 0 0 0 0 0 0 0 0 0 0 0 0 6 22 1 146 332 292 408 1412 1688 1658 1967 1788 1366 1156 1709 1754 1410 1261 1463 1637
3 1 1 3 0 0 0 0 0 0 0 0 0 0 14 19 22 18 0 0 427 1424 1536 1663 1765 1885 1682 1351 1441 1751 1484 1387 1284
0 0 0 0 0 0 0 0 0 0 0 0 0 0 0 0 0 0 8 20 148 344 597 1216 1318 1284 1259 1601 1840 1545 1124 797 759
0 0 0 0 0 0 0 0 0 1 0 0 0 0 0 0 0 0 0 0 0 13 32 273 565 978 1353 1370 1341 1452 1347 1297 815
0 0 0 0 0 0 0 0 0 0 0 0 0 0 0 0 0 0 0 0 0 0 0 0 24 238 512 1090 1119 1163 1305 1247 1275
0 0 0 0 0 0 0 0 0 0 0 0 0 0 0 0 0 0 0 0 0 0 0 0 0 0 58 249 661 758 817 777 939
0 0 0 0 0 0 0 0 0 0 0 0 0 0 0 0 0 0 0 0 0 0 0 0 0 0 2 137 437 273 201 387 608
0 0 0 0 0 0 0 0 0 0 0 0 0 0 0 0 0 0 0 0 0 0 0 0 0 0 0 21 0 0 0 5 5
0 0 0 0 0 0 0 0 0 0 0 0 0 0 0 0 0 0 0 0 0 0 0 0 0 0 0 0 0 0 0 0 0
0 0 0 0 0 0 0 0 0 0 0 0 0 0 0 0 0 0 0 0 0 0 0 0 0 0 0 0 0 0 0 0 0
0 0 0 0 0 0 0 0 0 0 0 0 0 0 0 0 0 0 0 0 0 0 0 0 0 0 0 0 0 0 0 0 0
0 0 0 0 0 0 0 0 0 0 0 0 0 0 0 0 0 0 0 0 0 0 0 0 0 0 0 0 0 0 0 0 0
0 0 0 0 0 0 0 0 0 0 0 0 0 0 0 0 0 0 0 0 0 0 0 0 0 0 0 0 0 0 0 0 0

GFSFLT1_con_mlcape_096.txt.gz
CAPE
127 178 156 27 28 25 115 155 227 319 216 132 204 135 303 526 468 364 236 499 532 541 598 934 902 1141 1143 1030 792 881 1058 1068 1198
119 169 216 138 106 43 62 114 194 234 289 251 184 292 218 403 518 433 411 401 404 231 531 784 936 984 1087 1210 1073 1089 1245 1193 1240
52 146 283 311 212 135 92 84 226 251 364 392 424 600 456 345 431 343 172 427 648 810 714 913 937 1150 1071 1126 1305 1153 1189 1228 964
85 68 105 122 211 234 180 112 145 192 185 294 383 526 567 428 550 604 252 328 1011 870 763 761 878 973 873 1053 1339 1425 1055 1022 1042
32 36 38 116 155 143 125 131 123 1 108 108 209 310 422 518 634 536 757 577 855 821 757 544 766 467 517 680 848 1101 1384 1183 1156
0 1 0 0 1 17 123 107 53 126 82 50 58 109 216 290 405 605 618 809 872 878 851 565 448 282 137 61 358 746 1135 1406 1227
1 0 0 0 0 6 12 14 8 28 28 89 67 3 55 44 157 246 422 696 834 824 1071 883 764 638 578 518 443 789 1077 1446 1195
0 0 0 0 0 0 0 0 0 3 14 51 42 72 11 12 32 93 0 6 148 608 967 1069 1263 1274 1256 1216 1308 1405 1415 1433 1399
0 0 0 0 0 0 0 0 0 1 2 4 0 0 0 16 22 7 40 9 15 217 420 995 1183 1452 1401 1311 1231 1507 1461 1430 1390
0 0 0 0 0 0 0 0 0 0 0 0 0 0 0 1 14 1 3 12 7 46 143 243 454 1042 1347 1345 1399 1455 1323 1165 972
0 0 0 0 0 0 0 0 0 0 0 0 0 0 0 0 0 0 0 0 0 0 1 8 67 198 482 886 1168 1264 1233 1109 956
0 0 0 0 0 0 0 0 0 0 0 0 0 0 0 0 0 0 0 0 0 0 0 0 0 0 32 147 390 520 540 672 1044
0 0 0 0 0 0 0 0 0 0 0 0 0 0 0 0 0 0 0 0 0 0 0 0 0 0 0 0 48 102 85 200 572
0 0 0 0 0 0 0 0 0 0 0 0 0 0 0 0 0 0 0 0 0 0 0 0 0 0 1 64 0 0 0 16 152
0 0 0 0 0 0 0 0 0 0 0 0 0 0 0 0 0 0 0 0 0 0 0 0 0 0 0 0 0 0 0 0 0
0 0 0 0 0 0 0 0 0 0 0 0 0 0 0 0 0 0 0 0 0 0 0 0 0 0 0 0 0 0 0 0 0
0 0 0 0 0 0 0 0 0 0 0 0 0 0 0 0 0 0 0 0 0 0 0 0 0 0 0 0 0 0 0 0 0
0 0 0 0 0 0 0 0 0 0 0 0 0 0 0 0 0 0 0 0 0 0 0 0 0 0 0 0 0 0 0 0 0
0 0 0 0 0 0 0 0 0 0 0 0 0 0 0 0 0 0 0 0 0 0 0 0 0 0 0 0 0 0 0 0 0
0 0 0 0 0 0 0 0 0 0 0 0 0 0 0 0 0 0 0 0 0 0 0 0 0 0 0 0 0 0 0 0 0

GFSFLT1_con_mlcape_102.txt.gz
CAPE
0 0 23 70 97 86 83 117 84 52 18 60 96 85 85 114 139 101 116 199 235 355 363 513 660 782 844 745 603 275 249 660 913
4 0 0 23 64 97 69 55 141 118 96 78 110 168 175 197 170 205 175 139 209 353 449 496 585 746 694 765 747 411 599 833 739
85 25 0 17 1 32 85 82 110 237 107 82 76 182 274 259 257 241 267 294 321 326 362 366 456 471 599 656 815 786 689 824 956
132 172 114 96 50 7 51 52 71 178 161 130 67 115 105 128 174 250 351 368 259 299 390 495 503 545 680 730 809 934 926 857 888
52 65 114 253 241 69 4 53 86 171 206 159 122 206 218 217 232 300 269 292 325 272 344 498 472 569 716 758 807 895 892 948 878
34 33 18 70 183 137 49 125 91 73 57 53 63 89 147 225 228 312 203 250 327 464 508 525 393 331 525 636 608 682 684 692 944
17 23 8 15 40 83 129 107 50 0 20 20 0 21 8 18 0 0 7 28 87 188 448 569 377 379 374 309 184 122 290 432 589
18 4 0 1 0 2 34 55 47 75 61 126 85 65 27 21 27 0 0 0 0 1 79 215 540 587 582 460 297 238 245 266 341
0 0 0 1 1 2 1 1 27 32 28 24 84 93 83 35 8 14 0 0 0 0 0 0 53 223 526 625 737 791 675 723 974
0 1 0 2 2 2 3 3 1 1 2 1 1 7 3 1 14 1 0 0 0 0 0 0 0 1 68 199 395 224 295 416 647
0 0 0 0 0 0 0 0 0 0 0 0 0 0 0 1 3 0 0 0 0 0 0 0 0 0 0 0 59 1 0 53 307
0 0 0 0 0 0 0 0 0 0 0 0 0 0 0 0 0 0 0 0 0 0 0 0 0 0 37 61 0 0 0 9 143
0 0 0 0 0 0 0 0 0 0 0 0 0 0 0 0 0 0 0 0 0 0 0 0 0 15 1 0 0 0 0 0 0
0 0 0 0 0 0 0 0 0 0 0 0 0 0 0 0 0 0 0 0 0 0 0 0 0 0 0 0 0 0 0 0 0
0 0 0 0 0 0 0 0 0 0 0 0 0 0 0 0 0 0 0 0 0 0 0 0 0 0 0 0 0 0 0 0 0
0 0 0 0 0 0 0 0 0 0 0 0 0 0 0 0 0 0 0 0 0 0 0 0 0 0 0 0 0 0 0 0 0
0 0 0 0 0 0 0 0 0 0 0 0 0 0 0 0 0 0 0 0 0 0 0 0 0 0 0 0 0 0 0 0 0
0 0 0 0 0 0 0 0 0 0 0 0 0 0 0 0 0 0 0 0 0 0 0 0 0 0 0 0 0 0 0 0 0
0 0 0 0 0 0 0 0 0 0 0 0 0 0 0 0 0 0 0 0 0 0 0 0 0 0 0 0 0 0 0 0 0
0 0 0 0 0 0 0 0 0 0 0 0 0 0 0 0 0 0 0 0 0 0 0 0 0 0 0 0 0 0 0 0 0

GFSFLT1_con_mlcape_105.txt.gz
CAPE
36 21 35 148 204 179 208 183 160 178 199 223 338 436 423 452 488 513 421 371 508 801 878 782 1062 917 982 999 1223 928 979 1313 1651
21 3 10 110 207 224 135 117 182 166 163 237 295 310 379 327 340 411 443 494 619 709 797 811 1034 1187 1205 1295 1296 1149 825 1272 1216
67 11 24 60 95 185 161 118 228 203 186 97 151 314 382 340 471 467 559 534 568 634 788 897 870 911 1092 1186 1294 1313 1116 1175 1241
206 37 19 64 150 209 128 125 183 252 313 256 84 147 403 375 352 621 623 578 411 700 742 769 668 797 793 932 1077 1230 1414 1362 1239
411 241 161 215 191 130 145 109 142 245 278 237 230 174 216 297 330 400 545 609 442 496 390 806 912 983 658 744 1072 1307 1227 1319 1392
271 283 286 323 378 195 114 108 46 104 171 218 351 275 209 388 247 337 476 664 677 486 642 901 809 727 776 807 610 1025 1076 1045 1153
189 116 90 137 296 277 123 53 26 67 91 61 78 109 94 132 272 357 335 294 350 564 828 963 763 770 745 804 710 620 547 784 750
101 99 58 86 137 274 216 87 41 6 38 21 36 19 2 3 10 67 74 74 81 166 364 577 833 892 759 738 612 529 630 692 828
71 36 8 30 27 72 77 86 10 9 7 6 110 86 21 15 2 39 29 27 0 0 66 147 412 625 783 820 790 207 293 638 1331
10 8 2 5 2 3 1 0 0 1 0 11 40 62 78 16 1 0 0 13 0 0 0 52 74 129 282 308 111 0 42 167 1069
0 2 3 2 2 2 2 1 0 0 0 0 0 0 1 1 2 0 0 0 0 0 0 0 45 139 192 0 0 0 0 114 716
0 4 2 1 2 2 1 0 0 0 0 0 0 0 0 0 0 0 0 0 0 0 0 0 54 71 3 0 0 0 0 0 1
0 0 0 0 0 0 0 0 0 0 0 0 0 0 0 0 0 0 0 0 0 0 1 2 0 0 0 0 0 0 0 0 0
0 0 0 0 0 0 0 0 0 0 0 0 0 0 0 0 0 0 0 0 0 0 0 0 0 0 0 0 0 0 0 0 0
0 0 0 0 0 0 0 0 0 0 0 0 0 0 0 0 0 0 0 0 0 0 0 0 0 0 0 0 0 0 0 0 0
0 0 0 0 0 0 0 0 0 0 0 0 0 0 0 0 0 0 0 0 0 0 0 0 0 0 0 0 0 0 0 0 0
0 0 0 0 0 0 0 0 0 0 0 0 0 0 0 0 0 0 0 0 0 0 0 0 0 0 0 0 0 0 0 0 0
0 0 0 0 0 0 0 0 0 0 0 0 0 0 0 0 0 0 0 0 0 0 0 0 0 0 0 0 0 0 0 0 0
0 0 0 0 0 0 0 0 0 0 0 0 0 0 0 0 0 0 0 0 0 0 0 0 0 0 0 0 0 0 0 0 0
0 0 0 0 0 0 0 0 0 0 0 0 0 0 0 0 0 0 0 0 0 0 0 0 0 0 0 0 0 0 0 0 0

GFSFLT1_con_mlcape_108.txt.gz
CAPE
124 113 79 103 253 318 414 417 448 417 609 816 871 858 700 851 722 404 493 658 821 626 882 727 964 1000 852 1170 1599 1554 1703 1375 1300
196 99 102 125 237 354 439 433 484 455 503 752 664 637 847 730 692 443 651 585 935 963 1029 1095 1138 1058 1006 1133 1104 1552 1524 1076 1267
342 184 175 167 252 431 454 520 528 492 541 662 609 490 644 432 485 798 592 539 320 738 1173 1318 1108 965 985 1230 1521 1654 1338 1092 1097
491 353 155 184 358 453 556 415 283 386 638 675 514 535 511 445 513 399 817 601 533 746 848 1076 951 981 995 819 1109 1430 1552 1290 1112
629 463 226 273 210 277 315 466 551 264 430 535 739 570 438 750 497 397 333 591 471 716 604 906 765 845 995 1045 1092 1311 1281 1203 1021
777 481 412 411 292 362 585 408 366 357 620 734 792 695 565 613 625 323 400 474 704 585 703 656 821 818 820 743 932 938 912 1172 1157
1017 898 787 849 882 294 290 431 150 102 59 45 323 694 684 706 577 283 493 668 873 686 552 658 690 688 757 664 1056 874 1031 961 902
573 525 351 385 773 672 410 275 79 48 39 49 78 145 388 457 598 638 681 811 837 896 1044 920 957 784 872 904 885 739 1307 1314 1319
373 305 201 129 200 755 598 333 164 90 63 75 58 41 11 12 62 89 231 382 439 555 669 912 1183 1171 1041 1019 827 35 188 504 1515
280 231 103 63 55 152 460 366 97 107 143 152 96 98 47 10 5 0 0 2 124 292 368 415 501 840 833 202 49 0 21 118 946
105 57 11 1 1 1 11 7 43 4 7 1 3 11 29 14 12 12 0 0 2 44 176 276 321 166 50 0 0 0 13 301 1113
118 5 4 3 2 4 5 0 1 2 1 2 1 1 0 1 0 2 6 1 0 0 7 166 52 0 0 0 0 0 0 32 143
6 3 1 3 4 2 1 4 2 1 1 0 0 0 0 0 0 0 0 0 0 11 3 1 0 0 0 0 0 0 0 0 0
4 4 3 0 0 0 0 0 0 0 0 0 0 0 0 0 0 0 0 1 8 5 1 0 0 0 0 0 0 0 0 0 0
2 0 0 0 0 0 0 0 0 0 0 0 0 0 0 0 0 0 0 0 2 0 0 0 0 0 0 0 0 0 0 0 0
0 0 0 0 0 0 0 0 0 0 0 0 0 0 0 0 0 0 0 0 0 0 0 0 0 0 0 0 0 0 0 0 0
0 0 0 0 0 0 0 0 0 0 0 0 0 0 0 0 0 0 0 0 0 0 0 0 0 0 0 0 0 0 0 0 0
1 0 0 0 0 0 0 0 0 0 0 0 0 0 0 0 0 0 0 0 0 0 0 0 0 0 0 0 0 0 0 0 0
0 0 0 0 0 0 0 0 0 0 0 0 0 0 0 0 0 0 0 0 0 0 0 0 0 0 0 0 0 0 0 0 0
0 0 0 0 0 0 0 0 0 0 0 0 0 0 0 0 0 0 0 0 0 0 0 0 0 0 0 0 0 0 0 0 0

GFSFLT1_con_mlcape_111.txt.gz
CAPE
54 163 165 149 182 176 258 247 195 177 526 867 802 652 601 801 855 593 721 694 647 500 792 537 1385 1155 1453 1279 1543 1651 1796 1557 1540
54 185 125 175 207 235 210 318 292 324 768 890 774 608 691 732 736 624 831 808 1090 973 962 760 1054 831 930 1219 1478 1454 1668 1247 1367
105 170 204 204 161 174 449 278 410 419 599 788 714 501 603 637 512 632 661 868 774 847 595 1534 1213 1044 1000 1238 1362 1547 1528 1340 1417
197 219 239 304 131 254 359 387 482 503 607 957 908 712 695 512 373 377 537 702 727 937 1069 1305 1417 1242 1118 1252 1268 1303 1482 1579 1445
593 498 257 289 229 460 644 908 995 1017 789 933 1097 969 959 836 780 446 294 417 604 749 1034 1088 1147 1298 1366 1128 1252 1296 1440 1256 1057
719 723 458 354 357 777 1006 830 1002 867 822 875 1135 1058 1007 842 1044 682 439 303 333 618 1081 1173 1040 1135 1259 1430 1424 1582 1658 1460 1410
1007 963 751 523 381 430 674 975 990 1059 978 1072 890 732 730 853 912 964 617 453 333 426 677 978 1011 1130 1050 1070 1165 1386 1290 1206 1296
1381 1254 1093 822 831 858 800 627 473 316 155 59 87 62 173 616 917 1057 778 901 720 499 461 739 765 881 855 1003 951 816 924 1276 1329
1064 845 752 1180 1124 953 749 836 431 242 158 274 123 105 111 248 574 612 879 825 814 677 707 895 805 758 830 971 91 7 47 233 1075
636 667 384 316 564 878 1008 715 502 502 387 348 240 159 119 98 150 98 116 152 456 562 557 681 766 977 634 194 0 0 0 69 530
653 452 138 92 29 161 474 535 454 312 244 223 327 161 96 21 2 0 0 0 0 52 216 337 564 197 14 0 0 0 0 64 1212
520 300 8 5 4 1 3 40 47 54 168 32 11 1 4 6 36 39 21 3 0 1 60 84 50 12 0 0 0 0 0 113 495
158 47 3 5 7 5 2 3 5 3 2 5 3 4 1 0 1 1 29 63 60 62 37 8 0 0 0 0 0 0 0 0 72
1 4 5 4 3 2 3 2 2 1 1 0 1 0 0 0 1 1 2 4 22 3 0 0 0 0 0 0 0 0 0 0 0
4 5 2 0 0 0 0 0 0 0 0 0 0 0 0 0 0 1 6 2 3 2 0 0 0 0 0 0 0 0 0 0 0
1 0 0 0 0 0 0 0 0 0 0 0 0 0 0 0 0 0 5 6 0 0 0 1 3 0 0 0 0 0 0 0 0
2 1 0 0 0 0 0 0 0 0 0 0 0 0 0 0 0 0 0 1 1 1 3 1 0 0 0 0 0 0 0 0 0
0 0 0 0 0 0 0 0 0 0 0 0 0 0 0 0 0 0 0 0 0 0 0 0 0 0 0 0 0 0 0 0 0
0 0 0 0 0 0 0 0 0 0 0 0 0 0 0 0 0 0 0 0 0 0 0 0 0 0 0 0 0 0 0 0 0
0 0 1 0 0 0 0 0 0 0 0 0 0 0 0 0 0 0 0 0 0 0 0 0 0 0 0 0 0 0 0 0 0

GFSFLT1_con_mlcape_114.txt.gz
CAPE
48 117 116 126 41 180 108 170 243 356 811 717 544 798 771 638 740 703 773 611 548 222 688 992 1195 1088 1292 1162 1241 1458 1552 1581 1375
45 88 20 58 270 176 144 113 176 884 732 592 773 750 692 624 876 709 622 559 109 47 1022 896 1298 1122 1177 995 1019 1366 1366 1273 1142
86 58 104 90 130 150 11 67 96 819 794 1023 725 519 757 610 892 693 789 926 809 768 565 39 0 922 776 990 968 859 1177 1035 1090
120 1 2 132 104 156 91 240 335 843 700 687 614 692 454 460 413 483 821 720 901 1055 245 44 800 1116 1095 1020 1054 844 1089 1067 763
267 138 186 284 220 72 57 386 443 659 671 372 271 439 210 686 250 466 552 483 652 907 799 1128 894 1296 1205 1280 1152 1024 1177 1042 1039
271 168 133 235 137 236 452 417 290 103 0 592 771 197 764 783 917 342 380 406 491 582 1047 1093 1153 976 1135 1178 956 1001 803 1212 1196
324 238 366 282 815 544 25 37 1055 886 1100 840 1052 941 897 879 680 766 484 648 500 322 853 733 847 857 981 1062 771 880 894 1381 1034
684 562 438 347 431 932 971 1055 956 738 586 483 337 307 294 540 493 501 737 742 648 501 594 1004 933 776 855 968 504 115 233 415 604
1367 706 484 699 704 789 837 842 461 424 332 154 54 56 53 92 90 163 224 361 438 546 424 482 578 667 761 235 0 0 0 83 122
1137 892 839 641 718 968 986 639 439 317 233 228 175 190 339 303 238 101 112 109 319 121 368 531 542 536 154 0 0 0 0 6 284
821 594 346 233 182 405 705 694 482 458 364 286 327 252 188 127 67 15 1 1 4 56 143 258 61 8 0 0 0 0 0 0 622
473 328 116 6 0 19 76 257 369 381 218 219 218 177 110 100 59 1 0 0 0 2 2 0 0 0 0 0 0 0 0 152 582
200 29 3 4 2 1 0 1 0 0 0 0 1 1 2 3 0 20 10 0 0 0 0 0 0 0 0 0 0 0 0 0 103
0 3 4 4 3 2 3 1 0 0 0 0 0 0 0 0 0 0 0 1 3 0 0 0 0 0 0 0 0 0 0 0 0
3 2 4 2 0 2 3 1 0 0 1 0 0 0 0 0 0 0 1 0 0 0 0 0 0 0 0 0 0 0 0 0 0
4 1 0 0 0 0 0 0 0 0 0 0 0 0 0 0 0 0 0 0 0 0 0 0 0 0 0 0 0 0 0 0 0
0 0 0 0 0 0 0 0 0 0 0 0 0 0 0 0 0 0 0 0 0 0 0 0 0 0 0 0 0 0 0 0 0
0 0 0 0 0 0 0 0 0 0 0 0 0 0 0 0 0 0 0 0 0 0 0 0 0 0 0 0 0 0 0 0 0
0 0 0 0 0 0 0 0 0 0 0 0 0 0 0 0 0 0 0 0 0 0 0 0 0 0 0 0 0 0 0 0 0
0 0 0 0 0 0 0 0 0 0 0 0 0 0 0 0 0 0 0 0 0 0 0 0 0 0 0 0 0 0 0 0 0

GFSFLT1_con_mlcape_117.txt.gz
CAPE
81 78 29 64 47 74 56 369 360 391 200 202 158 255 549 372 125 12 419 582 486 289 402 443 838 850 940 1201 1311 1005 1544 1272 1386
80 86 15 59 70 64 216 113 159 505 380 317 176 355 751 468 508 599 562 656 313 144 531 792 809 702 651 754 1092 1012 1234 1276 1137
89 133 81 86 99 43 117 133 115 688 409 415 274 303 670 385 544 598 614 424 62 372 471 390 237 255 563 750 882 1142 1109 1044 918
46 92 93 95 94 105 129 138 90 547 665 428 401 603 510 462 283 582 514 791 595 695 307 0 0 111 513 596 969 660 956 690 683
31 92 99 42 134 250 64 54 143 806 739 448 458 671 511 404 475 523 588 520 657 783 254 2 362 486 908 872 756 1034 957 1194 674
97 76 115 90 54 179 149 62 140 427 441 518 515 761 515 580 316 397 410 577 616 586 637 500 672 657 1036 880 1135 905 757 647 849
219 145 35 63 119 134 146 126 150 199 230 318 245 265 165 258 329 303 639 635 513 411 750 796 888 998 844 854 588 445 718 649 924
245 245 90 154 213 116 101 98 170 225 121 19 86 17 18 283 319 207 407 399 325 436 569 619 571 577 565 142 104 23 128 472 400
342 392 506 542 164 92 84 86 9 58 403 145 206 51 103 150 192 262 245 279 289 306 148 338 347 360 74 0 0 0 0 20 90
154 412 527 555 736 355 119 76 19 154 366 217 166 123 139 118 78 54 23 54 80 169 164 198 60 3 0 0 0 0 0 0 70
434 407 194 148 154 251 507 491 450 318 307 249 252 312 205 92 41 8 8 10 16 67 45 0 0 0 0 0 0 0 0 0 185
119 67 3 1 2 24 231 446 440 344 258 367 325 255 117 41 2 0 0 0 0 3 1 0 0 0 0 0 0 0 0 139 14
0 2 1 0 0 3 42 32 168 193 122 108 108 117 39 48 35 0 0 0 0 1 0 0 0 0 0 0 0 0 0 0 2
0 1 2 2 1 1 1 2 15 44 0 10 0 0 3 13 3 1 1 0 0 0 0 0 0 0 0 0 0 0 0 0 0
0 2 1 1 1 2 3 0 0 0 0 0 0 0 0 0 0 0 0 0 0 0 0 0 0 0 0 0 0 0 0 0 0
1 1 1 2 2 2 1 1 0 2 2 0 0 0 0 0 0 0 0 0 0 0 0 0 0 0 0 0 0 0 0 0 0
0 0 0 0 0 0 0 0 0 0 0 0 0 0 0 0 0 0 0 0 0 0 0 0 0 0 0 0 0 0 0 0 0
0 0 0 0 0 0 0 0 0 0 0 0 0 0 0 0 0 0 0 0 0 0 0 0 0 0 0 0 0 0 0 0 0
0 0 0 0 0 0 0 0 0 0 0 0 0 0 0 0 0 0 0 0 0 0 0 0 0 0 0 0 0 0 0 0 0
0 0 0 0 0 0 0 0 0 0 0 0 0 0 0 0 0 0 0 0 0 0 0 0 0 0 0 0 0 0 0 0 0

GFSFLT1_con_mlcape_123.txt.gz
CAPE
7 15 50 42 41 56 118 93 76 97 115 122 116 152 230 191 119 148 217 368 442 408 458 489 545 712 711 448 406 804 1047 1073 951
1 6 10 41 48 60 89 143 95 98 104 109 114 130 135 183 134 110 151 320 404 352 278 335 377 634 736 553 686 739 910 956 672
2 16 26 14 65 88 92 103 106 134 108 105 67 98 127 168 223 174 79 277 374 298 237 353 580 475 598 675 706 734 675 789 868
26 31 17 11 72 138 152 111 104 133 150 126 121 143 253 236 203 165 155 370 370 286 249 325 429 436 427 462 498 599 795 815 650
50 45 19 14 74 113 176 170 140 192 202 172 184 198 271 192 246 232 459 494 380 196 242 258 245 196 175 375 492 583 625 795 658
25 48 20 33 61 96 154 184 199 256 259 245 219 183 169 261 345 265 303 447 455 389 204 337 169 43 0 218 511 538 669 657 689
1 0 11 23 57 102 102 149 169 291 343 357 266 214 189 193 233 234 271 323 333 408 348 325 163 51 137 503 676 729 737 705 626
55 8 4 30 73 72 96 114 136 333 420 433 360 325 266 192 226 372 336 309 378 429 438 474 370 367 381 295 289 175 257 382 492
251 69 32 14 52 118 132 151 158 245 280 282 376 340 272 208 331 351 285 283 278 227 244 331 273 299 237 162 38 6 0 0 189
102 54 28 85 85 181 216 178 209 213 220 227 187 200 171 184 159 155 81 67 77 87 140 87 46 33 2 0 0 0 0 0 7
45 41 27 52 141 193 198 273 267 219 212 163 65 34 49 83 62 53 32 22 11 31 45 14 0 0 0 0 0 0 0 0 17
1 1 2 1 0 16 134 139 195 140 120 80 18 34 62 28 37 39 20 7 1 1 0 0 1 0 0 0 0 0 0 1 0
0 0 1 1 1 8 72 44 0 63 43 22 82 41 69 52 60 19 5 0 0 0 0 0 0 0 0 0 0 0 0 0 0
1 1 1 2 1 0 1 1 71 48 47 18 27 34 17 29 7 13 2 0 0 0 0 1 0 0 0 0 0 2 0 0 0
0 0 1 1 1 0 1 1 12 0 0 1 1 0 19 0 13 2 20 0 0 0 0 0 0 0 0 0 0 0 0 0 0
0 0 0 2 1 1 1 1 0 0 1 0 0 0 0 0 0 2 1 0 0 0 0 0 0 0 0 0 0 0 0 0 0
0 0 0 1 1 1 1 1 1 2 1 0 0 0 0 0 0 0 0 0 0 0 0 0 0 0 0 0 0 0 0 0 0
0 0 0 0 0 0 1 0 0 0 0 0 0 0 0 0 0 0 0 0 0 0 0 0 0 0 0 0 0 0 0 0 0
0 0 0 0 0 0 0 0 0 0 0 0 0 0 0 0 0 0 0 0 0 0 0 0 0 0 0 0 0 0 0 0 0
0 0 0 0 0 0 0 0 0 0 0 0 0 0 0 0 0 0 0 0 0 0 0 0 0 0 0 0 0 0 0 0 0